Hearne, TX

2:07 AM CST on November 15, 2019 (GMT -0600)
Hearne

Weather History for KLHB - September, 2019

Change the Weather History Date:

Monday, September 30, 2019

  Actual Average (KCLL) Record (KCLL)
Temperature  
Mean Temperature 86 °F -  
Max Temperature 97 °F 84 °F 98 °F (1938)
Min Temperature 74 °F 62 °F 44 °F (1916)
Cooling Degree Days 20    
Growing Degree Days 36 (Base 50)    
Moisture  
Dew Point 73 °F    
Average Humidity 71    
Maximum Humidity 94    
Minimum Humidity 44    
Precipitation  
Precipitation 0.00 in - - ()
Sea Level Pressure  
Sea Level Pressure 30.00 in    
Wind  
Wind Speed 6 mph ()    
Max Wind Speed 14 mph    
Max Gust Speed 22 mph    
Visibility 9.9 miles    
Events      
Averages and records for this station are not official NWS values.
T = Trace of Precipitation, MM = Missing Value Source: Averaged Metar Reports

Daily Weather History Graph

Daily Weather History Graph

Search for Another Location

Airport or City:

Astronomy

Sep. 30, 2019 Rise Set
Actual Time 7:19 AM CDT 7:13 PM CDT
Civil Twilight 6:55 AM CDT 7:37 PM CDT
Nautical Twilight 6:27 AM CDT 8:05 PM CDT
Astronomical Twilight 5:59 AM CDT 8:33 PM CDT
Moon 9:18 AM CDT (9/30) 8:57 PM CDT (9/30)
Length of Visible Light 12h 41m
Length of Day
11h 53m
Waxing Crescent, 6% of the Moon is Illuminated
Sep 30
Waxing Crescent
Oct 5
First Quarter
Oct 13
Full
Oct 21
Last Quarter
Oct 27
New

Hourly Weather History & Observations

Time (CDT) Temp. Heat Index Dew Point Humidity Pressure Visibility Wind Dir Wind Speed Gust Speed Precip Events Conditions
12:15 AM 79.3 °F - 71.8 °F 78% 30.04 in 10.0 mi SE 5.8 mph - N/A   Clear
12:35 AM 78.8 °F - 71.8 °F 79% 30.04 in 10.0 mi SE 4.6 mph - N/A   Clear
12:55 AM 78.1 °F - 72.0 °F 81% 30.04 in 10.0 mi SE 5.8 mph - N/A   Clear
1:15 AM 77.9 °F - 72.1 °F 82% 30.04 in 10.0 mi SE 5.8 mph - N/A   Clear
1:35 AM 77.4 °F - 72.3 °F 84% 30.04 in 10.0 mi SE 4.6 mph - N/A   Clear
1:55 AM 77.0 °F - 72.5 °F 86% 30.03 in 10.0 mi SE 3.5 mph - N/A   Clear
2:15 AM 76.6 °F - 72.5 °F 87% 30.04 in 10.0 mi SE 4.6 mph - N/A   Clear
2:35 AM 76.5 °F - 72.5 °F 87% 30.04 in 10.0 mi SE 4.6 mph - N/A   Mostly Cloudy
2:55 AM 76.1 °F - 72.5 °F 89% 30.04 in 10.0 mi Calm Calm - N/A   Mostly Cloudy
3:15 AM 75.7 °F - 72.5 °F 90% 30.03 in 10.0 mi Calm Calm - N/A   Scattered Clouds
3:35 AM 75.4 °F - 72.3 °F 90% 30.03 in 10.0 mi Calm Calm - N/A   Scattered Clouds
3:55 AM 75.2 °F - 72.3 °F 91% 30.03 in 10.0 mi Calm Calm - N/A   Scattered Clouds
4:15 AM 74.8 °F - 72.1 °F 91% 30.03 in 10.0 mi ESE 3.5 mph - N/A   Clear
4:35 AM 74.5 °F - 72.1 °F 92% 30.03 in 10.0 mi Calm Calm - N/A   Clear
4:55 AM 74.5 °F - 72.3 °F 93% 30.03 in 10.0 mi East 3.5 mph - N/A   Clear
5:15 AM 74.3 °F - 72.1 °F 93% 30.03 in 10.0 mi Calm Calm - N/A   Clear
5:35 AM 74.3 °F - 72.1 °F 93% 30.03 in 10.0 mi Calm Calm - N/A   Clear
5:55 AM 74.3 °F - 72.5 °F 94% 30.03 in 10.0 mi Calm Calm - N/A   Clear
6:15 AM 74.7 °F - 72.9 °F 94% 30.03 in 10.0 mi Calm Calm - N/A   Mostly Cloudy
6:35 AM 75.6 °F - 73.8 °F 94% 30.03 in 10.0 mi East 3.5 mph - N/A   Overcast
6:55 AM 75.7 °F - 73.9 °F 94% 30.03 in 10.0 mi East 3.5 mph - N/A   Overcast
7:15 AM 76.3 °F - 74.5 °F 94% 30.03 in 7.0 mi ESE 4.6 mph - N/A   Overcast
7:35 AM 76.6 °F - 74.8 °F 94% 30.03 in 7.0 mi East 5.8 mph - N/A   Overcast
7:55 AM 77.4 °F - 75.4 °F 94% 30.03 in 7.0 mi ESE 5.8 mph - N/A   Overcast
8:15 AM 78.1 °F - 75.4 °F 91% 30.04 in 10.0 mi ESE 4.6 mph - N/A   Overcast
8:35 AM 78.8 °F - 75.7 °F 90% 30.04 in 10.0 mi SE 6.9 mph - N/A   Overcast
8:55 AM 80.1 °F 85.5 °F 76.1 °F 88% 30.05 in 10.0 mi SE 9.2 mph - N/A   Overcast
9:15 AM 81.5 °F 88.5 °F 76.3 °F 84% 30.05 in 10.0 mi SE 5.8 mph 17.3 mph N/A   Overcast
9:35 AM 82.2 °F 89.9 °F 76.1 °F 82% 30.05 in 10.0 mi SE 10.4 mph - N/A   Overcast
9:55 AM 83.5 °F 92.2 °F 76.5 °F 79% 30.06 in 10.0 mi SE 6.9 mph - N/A   Overcast
10:15 AM 84.4 °F 93.5 °F 76.1 °F 76% 30.06 in 10.0 mi SSE 13.8 mph 17.3 mph N/A   Overcast
10:35 AM 85.3 °F 94.2 °F 75.4 °F 72% 30.06 in 10.0 mi SSE 12.7 mph 18.4 mph N/A   Mostly Cloudy
10:55 AM 86.9 °F 96.8 °F 75.6 °F 69% 30.06 in 10.0 mi SE 13.8 mph 18.4 mph N/A   Overcast
11:15 AM 88.0 °F 98.0 °F 75.2 °F 66% 30.06 in 10.0 mi SSE 12.7 mph 16.1 mph N/A   Overcast
11:35 AM 87.4 °F 96.7 °F 74.8 °F 66% 30.06 in 10.0 mi SSE 12.7 mph 17.3 mph N/A   Overcast
11:55 AM 90.7 °F 101.3 °F 74.8 °F 60% 30.05 in 10.0 mi ESE 11.5 mph 17.3 mph N/A   Overcast
12:15 PM 91.2 °F 100.8 °F 74.3 °F 57% 30.05 in 10.0 mi SSE 10.4 mph 19.6 mph N/A   Overcast
12:35 PM 92.1 °F 101.7 °F 73.9 °F 55% 30.04 in 10.0 mi SE 11.5 mph 18.4 mph N/A   Mostly Cloudy
12:55 PM 93.2 °F 103.0 °F 73.6 °F 53% 30.03 in 10.0 mi SSE 11.5 mph 16.1 mph N/A   Mostly Cloudy
1:15 PM 95.5 °F 105.1 °F 73.0 °F 48% 30.02 in 10.0 mi SE 13.8 mph 19.6 mph N/A   Mostly Cloudy
1:35 PM 94.5 °F 103.9 °F 73.0 °F 50% 30.01 in 10.0 mi SE 9.2 mph 17.3 mph N/A   Scattered Clouds
1:55 PM 97.5 °F 107.5 °F 73.0 °F 45% 29.99 in 10.0 mi SSE 10.4 mph 21.9 mph N/A   Scattered Clouds
2:15 PM 96.4 °F 105.7 °F 72.3 °F 46% 29.98 in 10.0 mi SE 10.4 mph 19.6 mph N/A   Scattered Clouds
2:35 PM 96.1 °F 104.9 °F 72.5 °F 46% 29.97 in 10.0 mi SE 11.5 mph 17.3 mph N/A   Mostly Cloudy
2:55 PM 97.7 °F 107.1 °F 72.5 °F 44% 29.96 in 10.0 mi SE 9.2 mph - N/A   Mostly Cloudy
3:15 PM 93.9 °F 102.7 °F 72.5 °F 50% 29.96 in 10.0 mi SE 8.1 mph - N/A   Mostly Cloudy
3:35 PM 95.4 °F 104.7 °F 72.7 °F 48% 29.95 in 10.0 mi SE 11.5 mph - N/A   Mostly Cloudy
3:55 PM 96.8 °F 106.6 °F 72.7 °F 46% 29.94 in 10.0 mi SE 11.5 mph - N/A   Mostly Cloudy
4:15 PM 96.6 °F 105.4 °F 72.0 °F 45% 29.94 in 10.0 mi SE 11.5 mph - N/A   Scattered Clouds
4:35 PM 95.2 °F 103.6 °F 72.1 °F 47% 29.93 in 10.0 mi ESE 8.1 mph 16.1 mph N/A   Scattered Clouds
4:55 PM 95.2 °F 103.6 °F 72.1 °F 47% 29.93 in 10.0 mi ESE 8.1 mph - N/A   Mostly Cloudy
5:15 PM 94.6 °F 103.0 °F 72.1 °F 48% 29.93 in 10.0 mi SE 10.4 mph 20.7 mph N/A   Scattered Clouds
5:35 PM 93.9 °F 101.5 °F 71.8 °F 48% 29.92 in 10.0 mi SE 6.9 mph 16.1 mph N/A   Clear
5:55 PM 94.1 °F 101.8 °F 71.8 °F 48% 29.92 in 10.0 mi SE 9.2 mph 16.1 mph N/A   Clear
6:15 PM 92.8 °F 100.3 °F 72.0 °F 50% 29.92 in 10.0 mi SE 9.2 mph - N/A   Clear
6:55 PM 90.9 °F 98.9 °F 72.5 °F 55% 29.93 in 10.0 mi SE 6.9 mph - N/A   Clear
7:15 PM 90.0 °F 97.4 °F 72.1 °F 56% 29.93 in 10.0 mi SE 9.2 mph - N/A   Clear
7:35 PM 89.2 °F 95.9 °F 71.6 °F 56% 29.93 in 10.0 mi ESE 9.2 mph - N/A   Clear
7:55 PM 88.5 °F 94.9 °F 71.8 °F 57% 29.94 in 10.0 mi ESE 5.8 mph - N/A   Clear
8:15 PM 87.3 °F 94.0 °F 72.5 °F 61% 29.95 in 10.0 mi ESE 5.8 mph - N/A   Clear
8:35 PM 86.9 °F 94.5 °F 73.4 °F 64% 29.95 in 10.0 mi ESE 6.9 mph - N/A   Clear
8:55 PM 86.2 °F 93.8 °F 73.6 °F 66% 29.96 in 10.0 mi ESE 5.8 mph - N/A   Clear
9:15 PM 85.8 °F 93.4 °F 73.6 °F 67% 29.97 in 10.0 mi SE 6.9 mph - N/A   Clear
9:35 PM 85.1 °F 92.2 °F 73.4 °F 68% 29.97 in 10.0 mi SE 9.2 mph - N/A   Clear
9:55 PM 84.6 °F 91.4 °F 73.4 °F 69% 29.98 in 10.0 mi ESE 8.1 mph - N/A   Clear
10:15 PM 84.2 °F 90.6 °F 73.0 °F 69% 29.98 in 10.0 mi SE 8.1 mph - N/A   Clear
10:35 PM 83.5 °F 89.4 °F 72.9 °F 70% 29.98 in 10.0 mi SE 6.9 mph - N/A   Clear
10:55 PM 83.1 °F 88.9 °F 72.7 °F 71% 29.98 in 10.0 mi SE 6.9 mph - N/A   Clear
11:15 PM 82.4 °F 87.7 °F 72.7 °F 72% 29.99 in 10.0 mi SE 6.9 mph - N/A   Clear
11:35 PM 81.7 °F 86.7 °F 72.7 °F 74% 29.99 in 10.0 mi SE 6.9 mph - N/A   Clear
11:55 PM 81.3 °F 85.9 °F 72.5 °F 74% 29.99 in 10.0 mi SE 8.1 mph - N/A   Clear